20050111,000003,606982,33.673206,-118.093425,14.990,29.580,1.051,1.896
20050111,000033,607012,33.673265,-118.093358,14.989,29.586,1.051,1.896
20050111,000104,607043,33.673328,-118.093272,14.988,29.469,1.002,1.826
20050111,000133,607071,33.673341,-118.093108,14.990,29.750,0.990,1.809
20050111,000203,607101,33.673286,-118.092910,14.991,30.116,0.977,1.792
20050111,000234,607132,33.673200,-118.092757,14.987,30.273,1.038,1.884
20050111,000303,607162,33.673148,-118.092670,14.990,30.443,1.113,1.995
20050111,000334,607192,33.673138,-118.092610,14.993,29.053,1.151,2.050
20050111,000404,607223,33.673153,-118.092570,14.988,28.835,1.076,1.938
20050111,000433,607251,33.673171,-118.092537,14.985,29.014,1.063,1.920
20050111,000504,607283,33.673208,-118.092473,14.979,29.324,1.038,1.884
20050111,000533,607312,33.673255,-118.092422,14.978,29.887,1.051,1.902
20050111,000604,607342,33.673275,-118.092323,14.975,30.151,0.965,1.773
20050111,000634,607372,33.673228,-118.092175,14.979,30.470,0.965,1.770
20050111,000704,607403,33.673145,-118.092032,14.982,30.482,0.990,1.803
20050111,000734,607433,33.673051,-118.091922,14.985,30.734,1.026,1.853
20050111,000804,607462,33.672993,-118.091850,14.987,30.577,1.126,1.995
20050111,000834,607492,33.672961,-118.091800,14.981,29.889,1.126,1.991
20050111,000904,607522,33.672945,-118.091733,14.980,29.447,1.189,2.080
20050111,000935,607553,33.672885,-118.091658,14.974,29.201,1.101,1.949
20050111,001004,607583,33.672793,-118.091578,14.972,29.110,1.063,1.893
20050111,001034,607613,33.672681,-118.091448,14.971,29.485,0.990,1.786
20050111,001104,607642,33.672520,-118.091292,14.972,29.503,1.063,1.897
20050111,001134,607672,33.672325,-118.091157,14.979,28.920,1.202,2.104
20050111,001204,607702,33.672116,-118.091027,14.978,28.140,1.126,1.995
20050111,001234,607733,33.671890,-118.090918,14.973,29.208,1.002,1.815
20050111,001304,607763,33.671676,-118.090807,14.974,30.061,1.002,1.816
20050111,001335,607794,33.671478,-118.090698,14.974,30.145,1.002,1.818
20050111,001404,607822,33.671373,-118.090603,14.969,30.157,0.977,1.782
20050111,001434,607852,33.671226,-118.090515,14.968,30.267,1.002,1.819
20050111,001505,607883,33.671093,-118.090418,14.979,30.501,1.126,2.004
20050111,001535,607913,33.671000,-118.090323,14.988,28.802,1.189,2.100
20050111,001604,607943,33.670945,-118.090233,14.989,27.872,1.240,2.176
20050111,001634,607972,33.670871,-118.090108,14.995,27.078,1.332,2.312
20050111,001704,608002,33.670763,-118.090010,14.993,26.354,1.253,2.197
20050111,001735,608034,33.670621,-118.089982,15.000,26.135,1.332,2.315
20050111,001804,608063,33.670511,-118.090030,15.015,26.030,1.425,2.452
20050111,001835,608093,33.670405,-118.090122,15.037,24.414,1.630,2.753
20050111,001905,608123,33.670333,-118.090197,15.080,20.790,2.032,3.348
20050111,001935,608154,33.670326,-118.090248,15.053,20.156,1.452,2.494
20050111,002005,608184,33.670333,-118.090263,15.034,23.486,1.358,2.358
20050111,002035,608213,33.670391,-118.090283,15.044,23.727,1.534,2.622
20050111,002105,608243,33.670468,-118.090285,14.995,26.204,1.014,1.854
20050111,002136,608275,33.670536,-118.090375,14.998,28.268,1.163,2.079
20050111,002205,608304,33.670565,-118.090727,14.993,27.735,1.088,1.967
20050111,002235,608334,33.670538,-118.091210,14.987,28.135,1.088,1.968
20050111,002305,608364,33.670370,-118.091823,15.006,27.096,1.452,2.511
20050111,002335,608393,33.670213,-118.092545,14.999,26.312,1.126,2.027
20050111,002405,608423,33.670095,-118.093335,14.993,27.268,1.088,1.971
20050111,002436,608455,33.669910,-118.094108,14.994,28.105,0.990,1.821
20050111,002505,608484,33.669763,-118.094920,14.995,29.244,0.965,1.785
20050111,002535,608514,33.669596,-118.095732,14.985,29.312,1.163,2.078
20050111,002605,608544,33.669420,-118.096535,14.989,29.017,0.977,1.799
20050111,002635,608573,33.669275,-118.097338,14.983,28.963,1.202,2.130
20050111,002705,608603,33.669071,-118.098260,14.978,25.723,1.658,2.801
20050111,002736,608634,33.668855,-118.099277,14.971,22.949,1.266,2.218
20050111,002806,608664,33.668606,-118.100320,14.935,22.912,1.492,2.550
20050111,002836,608694,33.668371,-118.101400,14.930,22.800,1.385,2.388
20050111,002905,608723,33.668085,-118.102552,14.913,22.927,1.452,2.483
20050111,002935,608753,33.667805,-118.103763,14.924,22.938,1.176,2.075
20050111,003005,608783,33.667496,-118.105048,14.902,23.955,1.398,2.399
20050111,003036,608814,33.667153,-118.106440,14.892,24.145,1.319,2.281
20050111,003105,608844,33.666790,-118.107938,14.924,24.524,1.038,1.869
20050111,003135,608874,33.666400,-118.109497,14.925,25.937,1.076,1.923
20050111,003206,608905,33.665985,-118.111157,14.958,27.344,1.038,1.866
20050111,003235,608933,33.665603,-118.112710,14.970,27.873,0.953,1.738
20050111,003306,608964,33.665175,-118.114368,14.978,28.433,0.990,1.790
20050111,003336,608994,33.664778,-118.115990,14.960,28.513,1.076,1.914
20050111,003406,609024,33.664391,-118.117550,14.935,28.630,1.014,1.823
20050111,003437,609055,33.663971,-118.119218,14.939,28.493,0.965,1.750
20050111,003506,609085,33.663585,-118.120798,14.915,28.611,1.002,1.804
20050111,003536,609115,33.663148,-118.122493,14.904,28.414,1.051,1.875
20050111,003606,609144,33.662735,-118.124140,14.935,28.366,0.965,1.750
20050111,003636,609174,33.662305,-118.125782,14.902,28.625,1.063,1.894
20050111,003706,609204,33.661885,-118.127420,14.887,28.459,1.113,1.968
20050111,003736,609235,33.661473,-118.129068,14.865,28.141,1.113,1.968
20050111,003806,609265,33.661060,-118.130720,14.846,27.772,1.163,2.041
20050111,003836,609295,33.660648,-118.132365,14.879,27.725,1.051,1.875
20050111,003907,609326,33.660233,-118.134005,14.877,27.747,1.063,1.892
20050111,003936,609354,33.659845,-118.135588,14.865,27.880,1.101,1.947
20050111,004006,609384,33.659448,-118.137290,14.870,27.853,1.051,1.873
20050111,004036,609415,33.659046,-118.138940,14.870,27.917,1.126,1.982
20050111,004106,609445,33.658638,-118.140597,14.911,27.793,0.965,1.746
20050111,004136,609474,33.658231,-118.142262,14.921,27.836,0.953,1.727
20050111,004206,609504,33.657853,-118.143920,14.908,27.997,0.953,1.726
20050111,004237,609536,33.657453,-118.145563,14.899,28.116,0.894,1.638
20050111,004307,609565,33.657056,-118.147208,14.874,28.240,1.038,1.850
20050111,004336,609595,33.656655,-118.148862,14.909,28.615,0.882,1.620
20050111,004406,609625,33.656258,-118.150532,14.890,28.634,1.014,1.814
20050111,004436,609654,33.655856,-118.152202,14.903,28.729,0.870,1.602
20050111,004506,609684,33.655475,-118.153882,14.905,28.650,0.965,1.742
20050111,004536,609714,33.655090,-118.155563,14.906,28.897,0.917,1.671
20050111,004606,609745,33.654690,-118.157238,14.903,29.039,0.953,1.723
20050111,004637,609775,33.654298,-118.158922,14.890,29.300,0.965,1.741
20050111,004707,609805,33.653926,-118.160613,14.880,29.228,0.977,1.758
20050111,004736,609834,33.653533,-118.162302,14.884,29.072,0.965,1.741
20050111,004807,609866,33.653153,-118.163963,14.886,29.046,0.990,1.776
20050111,004836,609894,33.652785,-118.165648,14.866,28.984,1.014,1.812
20050111,004906,609925,33.652406,-118.167348,14.872,28.488,0.965,1.740
20050111,004937,609955,33.652036,-118.169042,14.861,28.480,0.953,1.722
20050111,005007,609986,33.651653,-118.170778,14.863,28.500,0.941,1.704
20050111,005037,610016,33.651298,-118.172398,14.867,28.583,0.929,1.685
20050111,005106,610044,33.650958,-118.174072,14.866,28.744,0.977,1.755
20050111,005136,610075,33.650590,-118.175730,14.878,28.735,0.977,1.755
20050111,005206,610105,33.650220,-118.177415,14.932,28.670,0.812,1.512
20050111,005237,610135,33.649861,-118.179110,14.909,28.646,0.858,1.579
20050111,005307,610166,33.649496,-118.180848,14.928,28.630,0.800,1.494
20050111,005336,610194,33.649146,-118.182463,14.972,29.450,0.800,1.494
20050111,005406,610224,33.648785,-118.184137,14.961,29.552,0.870,1.595
20050111,005437,610255,33.648430,-118.185847,14.953,29.721,0.824,1.527
20050111,005507,610285,33.648138,-118.187482,14.943,29.974,0.894,1.629
20050111,005537,610316,33.648111,-118.189272,14.939,29.998,0.953,1.716
20050111,005607,610346,33.648085,-118.191007,14.912,29.940,0.953,1.716
20050111,005637,610376,33.648053,-118.192752,14.922,29.757,0.894,1.629
20050111,005707,610405,33.648043,-118.194457,14.912,29.757,0.965,1.733
20050111,005737,610435,33.648050,-118.196263,14.918,29.720,0.870,1.594
20050111,005808,610467,33.648050,-118.198030,14.928,29.757,0.906,1.646
20050111,005837,610496,33.648055,-118.199790,14.954,29.808,0.846,1.559
20050111,005908,610526,33.648053,-118.201543,14.950,29.981,1.014,1.803
20050111,005938,610556,33.648045,-118.203315,14.955,30.084,0.953,1.714
20050111,010007,610585,33.648055,-118.205072,14.978,30.052,0.870,1.592
20050111,010038,610617,33.648070,-118.206833,15.003,29.841,0.894,1.627
20050111,010107,610645,33.648045,-118.208543,14.997,29.908,0.941,1.696
20050111,010138,610676,33.648050,-118.210380,15.012,29.883,0.965,1.731
20050111,010208,610706,33.648061,-118.212145,15.013,30.358,1.076,1.891
20050111,010237,610735,33.648056,-118.213920,15.010,30.527,1.038,1.836
20050111,010307,610765,33.648058,-118.215688,15.018,30.330,1.051,1.854
20050111,010337,610795,33.648038,-118.217472,15.039,30.226,1.026,1.819
20050111,010407,610826,33.648035,-118.219252,15.090,30.190,1.014,1.802
20050111,010437,610856,33.648040,-118.221005,15.105,30.196,1.014,1.802
20050111,010508,610886,33.648048,-118.222717,15.119,30.443,1.038,1.836
20050111,010537,610915,33.648031,-118.224413,15.126,31.164,0.965,1.730
20050111,010608,610947,33.648053,-118.226117,15.130,31.552,0.990,1.766
20050111,010638,610976,33.648098,-118.227808,15.135,31.593,1.002,1.783
20050111,010707,611006,33.648121,-118.229483,15.137,31.654,0.941,1.695
20050111,010738,611036,33.648150,-118.231215,15.136,31.843,0.953,1.712
20050111,010807,611066,33.648193,-118.232840,15.136,31.974,0.917,1.660
20050111,010838,611097,33.648221,-118.234575,15.145,32.253,0.977,1.747
20050111,010908,611127,33.648245,-118.236250,15.161,32.215,1.038,1.835
20050111,010938,611156,33.648248,-118.237872,15.170,32.401,1.076,1.889
20050111,011008,611186,33.648223,-118.239622,15.170,32.556,1.101,1.926
20050111,011038,611216,33.648235,-118.241323,15.161,32.745,1.038,1.835
20050111,011108,611247,33.648225,-118.243018,15.156,32.846,1.026,1.818
20050111,011138,611277,33.648220,-118.244663,15.154,32.850,1.002,1.782
20050111,011208,611307,33.648225,-118.246425,15.154,32.850,0.990,1.765
20050111,011239,611338,33.648225,-118.248122,15.153,32.865,1.014,1.800
20050111,011308,611366,33.648208,-118.249833,15.148,32.888,1.014,1.800
20050111,011339,611397,33.648210,-118.251518,15.152,32.886,0.990,1.764
20050111,011409,611427,33.648188,-118.253242,15.155,32.858,1.002,1.782
20050111,011438,611457,33.648200,-118.254848,15.159,32.832,1.026,1.818
20050111,011508,611486,33.648208,-118.256523,15.162,32.888,1.014,1.800
20050111,011538,611516,33.648200,-118.258195,15.166,32.917,1.076,1.889
20050111,011608,611546,33.648220,-118.259880,15.188,32.928,1.101,1.925
20050111,011638,611577,33.648233,-118.261555,15.203,32.959,1.088,1.907
20050111,011708,611607,33.648248,-118.263213,15.195,33.006,1.076,1.889
20050111,011738,611637,33.648273,-118.264873,15.201,33.015,1.101,1.925
20050111,011809,611668,33.648608,-118.266542,15.208,33.017,1.138,1.979
20050111,011839,611698,33.649200,-118.267987,15.212,33.030,1.101,1.925
20050111,011908,611726,33.649825,-118.269503,15.202,33.053,1.088,1.907
20050111,011939,611757,33.650445,-118.271033,15.204,33.055,1.088,1.907
20050111,012009,611787,33.651085,-118.272553,15.185,33.067,1.063,1.870
20050111,012038,611817,33.651721,-118.274078,15.190,33.051,1.113,1.943
20050111,012108,611846,33.652351,-118.275613,15.208,33.028,1.113,1.943
20050111,012139,611878,33.653026,-118.277203,15.195,33.050,1.101,1.925
20050111,012210,611909,33.653666,-118.278740,15.170,33.076,1.076,1.888
20050111,012239,611937,33.654288,-118.280287,15.163,33.060,1.038,1.834
20050111,012309,611967,33.654920,-118.281778,15.163,33.031,1.014,1.800
20050111,012339,611998,33.655566,-118.283385,15.160,33.007,1.063,1.870
20050111,012409,612028,33.656216,-118.284933,15.156,32.995,1.002,1.782
20050111,012440,612058,33.656865,-118.286503,15.154,32.981,0.977,1.746
20050111,012510,612089,33.657516,-118.288082,15.155,32.976,1.002,1.782
20050111,012540,612119,33.658163,-118.289653,15.155,32.950,0.977,1.746
20050111,012610,612148,33.658821,-118.291213,15.154,32.908,0.953,1.711
20050111,012639,612178,33.659461,-118.292790,15.158,32.885,1.014,1.799
20050111,012709,612208,33.660123,-118.294363,15.157,32.833,0.977,1.746
20050111,012739,612237,33.660766,-118.295947,15.157,32.790,0.990,1.763
20050111,012809,612267,33.661406,-118.297530,15.155,32.775,0.965,1.727
20050111,012840,612299,33.662065,-118.299112,15.154,32.776,0.953,1.712
20050111,012910,612328,33.662690,-118.300693,15.149,32.804,1.038,1.834
20050111,012940,612358,33.663341,-118.302277,15.147,32.624,1.063,1.870
20050111,013010,612388,33.663993,-118.303867,15.119,32.414,0.858,1.573
20050111,013039,612417,33.664645,-118.305462,15.100,32.350,0.812,1.505
20050111,013109,612447,33.665280,-118.307052,15.098,32.344,0.800,1.488
20050111,013139,612477,33.665941,-118.308652,15.095,32.360,0.777,1.454
20050111,013210,612508,33.666581,-118.310272,15.088,32.390,0.732,1.388
20050111,013240,612538,33.667248,-118.311868,15.088,32.388,0.766,1.438
20050111,013310,612568,33.667931,-118.313522,15.088,32.370,0.766,1.438
20050111,013339,612597,33.668560,-118.315078,15.093,32.369,0.789,1.471
20050111,013409,612627,33.669226,-118.316682,15.108,32.332,0.789,1.471
20050111,013439,612657,33.669873,-118.318303,15.114,32.348,0.800,1.488
20050111,013510,612688,33.670546,-118.319912,15.101,32.380,0.965,1.728
20050111,013540,612718,33.671226,-118.321568,15.095,32.164,0.906,1.642
20050111,013609,612747,33.671830,-118.323130,15.102,32.038,0.846,1.555
20050111,013639,612777,33.672476,-118.324735,15.109,32.085,0.953,1.711
20050111,013710,612809,33.673130,-118.326335,15.103,32.110,1.051,1.852
20050111,013740,612838,33.673808,-118.327993,15.102,31.890,1.063,1.870
20050111,013810,612868,33.674448,-118.329527,15.104,31.743,1.088,1.907
20050111,013840,612898,33.675103,-118.331180,15.108,31.660,1.014,1.799
20050111,013910,612929,33.675755,-118.332785,15.110,31.665,1.063,1.870
20050111,013940,612959,33.676418,-118.334378,15.110,31.669,1.088,1.906
20050111,014010,612989,33.677071,-118.335972,15.108,31.586,1.088,1.907
20050111,014040,613018,33.677718,-118.337590,15.112,31.524,1.026,1.817
20050111,014110,613048,33.678378,-118.339195,15.115,31.535,1.051,1.852
20050111,014141,613079,33.679025,-118.340820,15.115,31.569,1.051,1.852
20050111,014210,613109,33.679706,-118.342432,15.120,31.632,1.076,1.888
20050111,014240,613139,33.680358,-118.344042,15.122,31.650,1.026,1.817
20050111,014311,613170,33.681026,-118.345637,15.110,31.688,0.812,1.505
20050111,014340,613198,33.681656,-118.347248,15.110,31.747,0.846,1.555
20050111,014410,613228,33.682321,-118.348830,15.110,31.902,0.858,1.573
20050111,014440,613259,33.682956,-118.350430,15.115,31.950,0.929,1.676
20050111,014511,613289,33.683613,-118.352022,15.120,31.960,0.965,1.728
20050111,014540,613319,33.684253,-118.353622,15.123,31.921,0.835,1.538
20050111,014610,613348,33.684888,-118.355210,15.121,32.026,0.870,1.590
20050111,014640,613378,33.685533,-118.356798,15.128,32.090,0.990,1.764
20050111,014710,613408,33.686165,-118.358393,15.129,32.045,1.002,1.782
20050111,014740,613439,33.686791,-118.359982,15.130,31.954,0.977,1.746
20050111,014811,613469,33.687418,-118.361598,15.133,31.908,0.990,1.764
20050111,014840,613498,33.688071,-118.363213,15.136,31.864,1.051,1.852
20050111,014911,613530,33.688743,-118.364870,15.136,31.814,1.002,1.782
20050111,014941,613560,33.689350,-118.366438,15.140,31.764,1.051,1.852
20050111,015010,613588,33.689998,-118.368065,15.140,31.735,1.038,1.834
20050111,015041,613619,33.690645,-118.369697,15.142,31.726,1.002,1.782
20050111,015111,613649,33.691316,-118.371372,15.148,31.707,1.051,1.852
20050111,015140,613678,33.691945,-118.372948,15.141,31.757,1.051,1.852
20050111,015211,613710,33.692593,-118.374645,15.145,31.663,1.063,1.870
20050111,015241,613740,33.693246,-118.376270,15.147,31.623,1.014,1.799
20050111,015311,613769,33.693891,-118.377848,15.149,31.649,0.990,1.764
20050111,015340,613799,33.694536,-118.379475,15.149,31.690,1.051,1.852
20050111,015411,613829,33.695183,-118.381107,15.148,31.732,0.990,1.764
20050111,015441,613860,33.695845,-118.382797,15.148,31.711,0.990,1.764
20050111,015511,613890,33.696480,-118.384380,15.148,31.702,1.014,1.799
20050111,015540,613918,33.697125,-118.386043,15.136,31.737,1.101,1.925
20050111,015611,613949,33.697771,-118.387707,15.132,31.637,1.076,1.888
20050111,015640,613979,33.698428,-118.389357,15.136,31.027,1.088,1.906
20050111,015710,614008,33.699075,-118.391005,15.137,30.933,1.088,1.906
20050111,015740,614038,33.699713,-118.392652,15.142,30.900,1.076,1.888
20050111,015811,614070,33.700366,-118.394295,15.137,30.933,1.088,1.906
20050111,015841,614099,33.701025,-118.395998,15.149,30.780,1.076,1.888
20050111,015911,614129,33.701668,-118.397635,15.159,30.745,1.088,1.907
20050111,015940,614159,33.702275,-118.399227,15.155,30.887,1.088,1.906
20050111,020012,614190,33.702918,-118.400922,15.148,30.942,1.076,1.888
20050111,020042,614220,33.703570,-118.402562,15.141,30.763,1.051,1.852
20050111,020111,614250,33.704210,-118.404207,15.133,30.618,1.076,1.888
20050111,020142,614281,33.704860,-118.405853,15.129,30.395,1.051,1.852
20050111,020211,614309,33.705481,-118.407508,15.128,30.365,1.063,1.870
20050111,020241,614339,33.706130,-118.409153,15.124,30.356,1.088,1.907
20050111,020311,614370,33.706773,-118.410807,15.126,30.335,1.076,1.888
20050111,020342,614400,33.707415,-118.412448,15.132,30.405,1.076,1.888
20050111,020412,614431,33.708100,-118.414133,15.136,30.406,1.026,1.817
20050111,020441,614459,33.708703,-118.415723,15.140,30.522,1.038,1.834
20050111,020511,614489,33.709351,-118.417346,15.148,30.509,1.051,1.852
20050111,020542,614520,33.710005,-118.418981,15.148,30.754,1.063,1.870
20050111,020611,614550,33.710728,-118.420560,15.146,30.908,1.051,1.852
20050111,020642,614580,33.711728,-118.421881,15.158,30.988,1.088,1.907
20050111,020712,614611,33.712795,-118.423241,15.156,31.023,1.076,1.888
20050111,020742,614641,33.713791,-118.424525,15.149,31.215,1.076,1.888
20050111,020812,614670,33.714833,-118.425841,15.138,31.210,1.076,1.888
20050111,020842,614700,33.715865,-118.427168,15.127,31.020,1.063,1.870
20050111,020912,614730,33.716890,-118.428491,15.115,30.798,1.088,1.907
20050111,020942,614761,33.717936,-118.429800,15.066,29.957,1.101,1.925
20050111,021012,614791,33.719011,-118.431150,15.076,29.222,1.076,1.888
20050111,021041,614819,33.720020,-118.432406,15.115,29.036,1.101,1.925
20050111,021112,614850,33.721060,-118.433716,15.163,29.773,1.113,1.943
20050111,021142,614880,33.722148,-118.435048,15.153,30.238,1.088,1.907
20050111,021211,614910,33.723158,-118.436306,15.156,30.427,1.126,1.961
20050111,021242,614941,33.724211,-118.437608,15.184,30.670,1.202,2.071
20050111,021312,614971,33.725258,-118.438908,15.173,30.792,1.126,1.961
20050111,021342,615001,33.726313,-118.440210,15.171,30.915,1.126,1.961
20050111,021413,615032,33.727391,-118.441561,15.155,31.017,1.088,1.907
20050111,021442,615060,33.728446,-118.442860,15.149,31.284,1.076,1.888
20050111,021512,615090,33.729496,-118.444163,15.166,31.357,1.088,1.906
20050111,021542,615121,33.730553,-118.445461,15.182,31.450,1.101,1.925
20050111,021613,615151,33.731628,-118.446768,15.162,31.618,1.051,1.852
20050111,021642,615180,33.732705,-118.448078,15.155,31.671,1.076,1.888
20050111,021712,615210,33.733783,-118.449390,15.165,31.697,1.088,1.906
20050111,021743,615242,33.734861,-118.450716,15.164,31.779,1.101,1.925
20050111,021813,615271,33.735985,-118.452071,15.161,31.845,1.076,1.888
20050111,021842,615301,33.737035,-118.453346,15.141,31.844,1.014,1.799
20050111,021912,615331,33.738135,-118.454636,15.137,31.841,0.965,1.728
20050111,021943,615362,33.739473,-118.455588,15.148,31.891,1.051,1.852
20050111,022013,615392,33.740871,-118.456283,15.149,31.976,0.990,1.764
20050111,022043,615421,33.742288,-118.456970,15.138,32.009,0.977,1.746
20050111,022112,615451,33.743658,-118.457640,15.118,32.077,0.870,1.590
20050111,022143,615481,33.745115,-118.458355,15.106,32.239,0.835,1.538
20050111,022213,615512,33.746486,-118.458995,15.093,32.292,0.835,1.538
20050111,022243,615542,33.747958,-118.459671,15.083,32.345,0.766,1.437
20050111,022313,615572,33.749431,-118.459986,15.065,32.381,0.732,1.388
20050111,022344,615603,33.750910,-118.460125,15.048,32.383,0.777,1.454
20050111,022413,615631,33.752345,-118.460201,15.046,32.309,0.800,1.488
20050111,022443,615661,33.753838,-118.460320,15.059,32.089,0.789,1.471
20050111,022513,615692,33.755383,-118.460393,15.072,32.030,0.777,1.454
20050111,022544,615722,33.756941,-118.460455,15.076,32.190,0.666,1.290
20050111,022614,615752,33.758395,-118.460515,15.074,32.357,0.699,1.339
20050111,022643,615781,33.759905,-118.460550,15.073,32.414,0.699,1.339
20050111,022714,615813,33.761398,-118.460611,15.066,32.429,0.699,1.339
20050111,022744,615842,33.762888,-118.460663,15.066,32.318,0.699,1.339
20050111,022814,615872,33.764383,-118.460698,15.065,32.381,0.710,1.355
20050111,022844,615902,33.765885,-118.460710,15.058,32.399,0.732,1.388
20050111,022914,615933,33.767381,-118.460756,15.053,32.341,0.743,1.404
20050111,022944,615963,33.768881,-118.460763,15.045,32.310,0.766,1.438
20050111,023014,615993,33.770436,-118.460811,15.033,32.263,0.777,1.454
20050111,023044,616022,33.771898,-118.460838,15.035,32.160,0.789,1.471
20050111,023113,616052,33.773411,-118.460868,15.046,32.026,0.824,1.522
20050111,023144,616082,33.774920,-118.460905,15.047,31.830,0.835,1.539
20050111,023214,616113,33.776436,-118.460913,15.043,31.540,0.906,1.642
20050111,023244,616143,33.777975,-118.460641,15.035,31.334,0.858,1.573
20050111,023314,616173,33.779428,-118.460410,15.030,31.086,0.870,1.590
20050111,023345,616204,33.781033,-118.460135,15.033,30.966,0.858,1.573
20050111,023415,616234,33.782531,-118.459906,15.030,31.020,0.882,1.607
20050111,023444,616262,33.783978,-118.459686,15.025,30.870,0.894,1.625
20050111,023515,616293,33.785526,-118.459396,15.027,30.714,0.917,1.659
20050111,023545,616323,33.786993,-118.459175,15.028,30.590,0.953,1.711
20050111,023615,616354,33.788503,-118.458933,15.032,30.478,0.977,1.746
20050111,023645,616384,33.790083,-118.458660,15.040,30.325,0.990,1.764
20050111,023714,616412,33.791551,-118.458406,15.043,30.163,1.002,1.782
20050111,023745,616443,33.793065,-118.458155,15.040,30.116,0.953,1.711
20050111,023815,616473,33.794625,-118.457873,15.035,30.138,0.917,1.659
20050111,023845,616503,33.796120,-118.457593,15.033,30.232,0.929,1.676
20050111,023915,616534,33.797613,-118.457353,15.032,30.298,0.882,1.607
20050111,023946,616564,33.799121,-118.457090,15.035,30.361,0.965,1.728
20050111,024015,616593,33.800573,-118.456838,15.034,30.397,0.929,1.676
20050111,024045,616623,33.802076,-118.456575,15.033,30.387,0.882,1.607
20050111,024115,616653,33.803620,-118.456286,15.035,30.404,0.929,1.676
20050111,024144,616682,33.805055,-118.456031,15.040,30.469,0.953,1.711
20050111,024216,616714,33.806633,-118.455741,15.043,30.507,0.906,1.642
20050111,024245,616744,33.808068,-118.455485,15.043,30.555,0.929,1.676
20050111,024316,616775,33.809545,-118.455216,15.045,30.602,0.953,1.711
20050111,024346,616805,33.811073,-118.454915,15.046,30.634,0.917,1.659
20050111,024416,616835,33.812493,-118.454648,15.048,30.660,0.882,1.607
20050111,024446,616864,33.814013,-118.454358,15.048,30.707,0.917,1.659
20050111,024516,616894,33.815481,-118.454073,15.050,30.768,0.882,1.607
20050111,024546,616924,33.816958,-118.453791,15.048,30.821,0.870,1.590
20050111,024616,616955,33.818363,-118.453530,15.047,30.891,0.858,1.573